NUSAT-37 (JOAN CLARKE)

导读 | 豆包AI

NUSAT-37又名JOAN CLARKE,是阿根廷Satellogic公司NUSAT系列商业对地观测卫星,于2023年4月15日发射。该卫星属于Satellogic星座组网卫星,具备高分辨率地球观测能力,可服务于环境监测、城市规划、灾害评估等多领域应用。作为新兴航天国家阿根廷的商业航天成果,它进一步推动了拉丁美洲微小卫星产业发展,也丰富了全球低轨观测卫星资源。

基本信息
目录编号:
56203
目录名称:
NUSAT-37 (JOAN CLARKE)
国际标识:
2023-054AB
轨道中心:
EARTH
卫星名称:
NUSAT-37 (JOAN CLARKE)
卫星全名:
--
卫星状态:
在轨 (已飞行1054 天)
发射日期:
2023-04-15 UTC
国别 :
阿根廷 (AR)
星等 :
--
轨道信息
数据来源 国际轨道数据
星历时间: 2026-03-04T12:57:01+0800
6小时前
查看轨道信息
半长轴: 6798.387km
偏心率: 0.0005735
轨道倾角: 97.276°
近地点辐角 321.875°
升交点赤经 328.927°
平近点角 38.209°
近地点: 416.351km
远地点: 424.149km
周期: 92.975分钟
每日圈数: 15.487952
详细信息
使用方式:
暂无
2D轨道图
3D轨道图
轨道高度分析图
轨道倾角分析图
轨道综合分析图
查看轨道综合分析图